Regional Weather Roundup
Issued by NWS Charleston, SC

Current Version | Previous Version | Graphics & Text | Print | Product List | Glossary On
Versions: 1 2 3 4 5 6 7 8 9 10 11 12 13 14 15 16 17 18 19 20 21 22 23 24 25 26 27 28 29 30 31 32 33 34 35 36 37 38 39 40 41 42 43 44 45 46 47 48 49 50
000
ASUS42 KCHS 240712
RWRCHS

REGIONAL WEATHER ROUNDUP
NATIONAL WEATHER SERVICE CHARLESTON SC
300 AM EDT MON JUL 24 2017

NOTE: "FAIR" INDICATES FEW OR NO CLOUDS BELOW 12,000 FEET WITH NO
SIGNIFICANT WEATHER AND/OR OBSTRUCTIONS TO VISIBILITY.

NOT ALL STATIONS ARE QUALITY CONTROLLED. USE DATA WITH CAUTION...
ESPECIALLY DEWPOINT OBSERVATIONS.

SCZ027-030-031-034>040-042>050-240800-
...SOUTHEAST SOUTH CAROLINA...

CITY           SKY/WX    TMP DP  RH WIND       PRES   REMARKS
N CHARLESTON   PTCLDY    78  74  87 SW9       29.90F
WATERFRONT PRK   N/A     80  76  87 SW7       29.90F
JOHNS ISLAND   FAIR      81  75  83 SW8       29.91F
PINOPOLIS        N/A     79  75  89 SW6       29.82F
MONCKS CORNER  FAIR      75  73  94 SW10G16   29.89F
SUMMERVILLE    PTSUNNY   77  73  88 CALM      29.92S
BEAUFORT MCAS  MOCLDY    79  76  90 SW12      29.92F
BEAUFORT ARPT  FAIR      79  73  83 SW7       29.92S
HILTON HEAD IS PTCLDY    79  75  89 SW10      29.93F
WALTERBORO     PTSUNNY   75  73  94 SW6       29.92F
ALLENDALE      NOT AVBL

...SOUTHERN MIDLANDS AND PEE DEE...

CITY           SKY/WX    TMP DP  RH WIND       PRES   REMARKS
GEORGETOWN     FAIR      77  75  94 SW8       29.90F
KINGSTREE      FAIR      73  72  94 S3        29.88S
ORANGEBURG     CLOUDY    74  72  93 SW5       29.90F
BARNWELL       CLOUDY    77  77 100 CALM      29.91S
AIKEN          FAIR      70  70 100 CALM      29.93F
MANNING        FAIR      77  75  94 SW9       29.89S
COLUMBIA       CLOUDY    74  72  93 S3        29.89R
SUMTER         MOCLDY    73  70  91 SW7       29.86F
FLORENCE       MOCLDY    73  73 100 SW3       29.89S
MYRTLE BEACH   PTCLDY    79  75  87 SW10      29.89
N MYRTLE BEACH MOCLDY    80  77  90 W9        29.87F

$$

GAZ063-065-086>088-099>101-113>116-118-119-134>141-150-240800-
...SOUTHEAST GEORGIA...

CITY           SKY/WX    TMP DP  RH WIND       PRES   REMARKS
SAVANNAH ARPT  CLOUDY   N/A N/A N/A SW10      29.94F
HUNTER AAF     PTCLDY    78  74  88 SW10      29.91F
FORT STEWART   MOCLDY    76  73  90 S8        29.92F
STATESBORO     CLOUDY    78  78 100 W5        29.94R
SYLVANIA       CLOUDY    78  77  95 W5        29.93F
CLAXTON        FAIR      78  75  91 CALM      29.93S

...CSRA...CENTRAL AND FAR SOUTHEAST GEORGIA...

CITY           SKY/WX    TMP DP  RH WIND       PRES   REMARKS
THOMSON        CLOUDY    72  71  97 W3        29.96F
AUGUSTA-BUSH   MOCLDY    75  73  93 S3        29.90F
AUGUSTA-DANIEL CLOUDY    75  71  87 S5        29.91F
SWAINSBORO     FAIR      77  77 100 W5        29.94S
VIDALIA        MOCLDY    77  75  94 SW7       29.94F
EASTMAN        FAIR      78  77  97 SW7       29.97S
HAZLEHURST     FAIR      77  77 100 SW7       29.94S
ALMA           MOCLDY    77  74  90 S6        29.95F
WAYCROSS       PTCLDY    78  78 100 SW8       29.96F
JESUP          NOT AVBL
BAXLEY         FAIR      77  77 100 SW6       29.94F
BRUNSWICK      CLOUDY    77  75  94 SW8       29.96F
SAINT SIMONS   PTCLDY    79  75  87 SW12      29.95F

$$

SCZ027-028-034-036>038-045-046-048>050-GAZ119-141-240800-
...LAKE AND SUPPLEMENTAL COASTAL OBSERVATIONS...

STATION/POSITION TIME  TEMP    WIND        PRES    WAVE   SWELL
                       AIR SEA DIR/SP/G            HT/PER HT/PER/DIR
                 (UTC) (F)     (DEG/KT/KT) (MB)    (FT/S) (FT/S/D)
WINYAH BAY       0545   80     220/  9     1012.0
LAKE MURRAY      0620   76     210/  9/ 10 1010.8F
ACE BASIN NERRS  0545   80        CALM     1014.0
FORT PULASKI     0648   79 86  240/  7/ 10 1013.9F
SAPELO ISLAND    0600   78     210/ 10     1015.0

$$

ANZ835-935-AMZ111-154-330-350-352-354-370-450-454-472-240800-
...C-MAN AND BUOY OBSERVATIONS...

STATION/POSITION TIME  TEMP    WIND        PRES    WAVE   SWELL
                       AIR SEA DIR/SP/G            HT/PER HT/PER/DIR
                 (UTC) (F)     (DEG/KT/KT) (MB)    (FT/S) (FT/S/D)
BUOY 41004       0650   82 83  230/ 21/ 25 1012.6F   5/ 6   2/120/10
BUOY 41008       0550   80 81  210/ 16/ 19 1014.4    3/ 4   2/120/10
FOLLY BEACH CMAN 0600   82     220/ 17/ 21 1013.6F
CAPERS NEARSHORE 0608   78 85  230/ 19/ 27 1012.6F
FRIPP NEARSHORE  0608   83 85  240/ 17/ 21 1013.2F


STATION/POSITION TIME  TEMP    WIND        PRES    WAVE   SWELL
                       AIR SEA DIR/SP/G            HT/PER HT/PER/DIR
                 (UTC) (F)     (DEG/KT/KT) (MB)    (FT/S) (FT/S/D)
5E ST. MARYS GA  0630      78                N/A     2/ 9
FRYING PAN BUOY  0650   82 82  210/ 21/ 25 1012.0F   7/ 7   2/140/10
BUOY 41025       0650   82 84  230/ 16/ 19 1011.2F   7/ 7
CAPE LOOKOUT NC  0600   81     220/ 11/ 13 1011.8F
BUOY 41002       0550   83 83  200/ 16/ 17 1016.6    5/ 6   2/ 90/ 9
BUOY 41010       0650   84 85  190/ 14/ 16 1016.6F   4/ 9   2/110/ 9
ST AUGUSTINE FL  0700   76 75  210/  8/ 11 1015.7F


$$




USA.gov is the U.S. government's official web portal to all federal, state and local government web resources and services.